Bowling Green, Kentucky, United States (42101)
Lat: 36.99N, Lon: 86.44W
Wx Zone: KYZ071
Local Info
Past Weather Observations for Saturday, July 26, 2014

NOTE: This archive is for the closest National Weather Service station to Bowling Green. Information may differ from the station used for current weather conditions.

Click here for Long-term Archive

Time Weather Temperature Dewpoint Humidity Pressure Winds Precip Visibility
23:55
Clear
70°F / 21°C 70°F / 21°C 100% 29.98 in
(1015 mb)
Calm 0.02 in
(0.51 mm)
10SM
23:35
Partly Cloudy
70°F / 21°C 70°F / 21°C 100% 30.01 in
(1016 mb)
NW 10.4 mph
(NW 17 kph)
0.02 in
(0.51 mm)
10SM
23:15
Overcast
70°F / 21°C 70°F / 21°C 100% 29.89 in
(1012 mb)
E 23 mph
(E 37 kph)
0.02 in
(0.51 mm)
10SM
22:55
Overcast
Thunder Storms
70°F / 21°C 70°F / 21°C 100% 30.04 in
(1017 mb)
E 5.8 mph
(E 9 kph)
0.50 in
(12.70 mm)
7SM
22:35
Overcast
Thunder Storms
70°F / 21°C 70°F / 21°C 100% 30.06 in
(1018 mb)
NE 3.5 mph
(NE 6 kph)
0.48 in
(12.19 mm)
4SM
22:15
Overcast
Thunder Storms
72°F / 22°C 72°F / 22°C 100% 30.06 in
(1018 mb)
N 5.8 mph
(N 9 kph)
0.32 in
(8.13 mm)
2SM
21:55
Overcast
Thunder Storms
73°F / 23°C 70°F / 21°C 89% 30.06 in
(1018 mb)
NNW 15 mph
(NNW 24 kph)
0.11 in
(2.79 mm)
7SM
21:35
Mostly Cloudy
Heavy Rain
77°F / 25°C 72°F / 22°C 83% 30.04 in
(1017 mb)
N 17.3 mph
(N 28 kph)
0.03 in
(0.76 mm)
7SM
21:15
Partly Cloudy
79°F / 26°C 72°F / 22°C 79% 30.01 in
(1016 mb)
Calm - 10SM
20:55
Overcast
81°F / 27°C 70°F / 21°C 70% 30.01 in
(1016 mb)
SSW 10.4 mph
(SSW 17 kph)
0.04 in
(1.02 mm)
7SM
20:35
Mostly Cloudy
82°F / 28°C 70°F / 21°C 66% 29.98 in
(1015 mb)
SSW 9.2 mph
(SSW 15 kph)
- 10SM
20:15
Partly Cloudy
81°F / 27°C 68°F / 20°C 66% 29.98 in
(1015 mb)
SW 8.1 mph
(SW 13 kph)
- 10SM
19:55
Clear
82°F / 28°C 68°F / 20°C 62% 29.95 in
(1014 mb)
SW 3.5 mph
(SW 6 kph)
- 10SM
19:35
Clear
82°F / 28°C 66°F / 19°C 58% 29.95 in
(1014 mb)
S 4.6 mph
(S 7 kph)
- 10SM
19:15
Clear
84°F / 29°C 66°F / 19°C 55% 29.95 in
(1014 mb)
SW 4.6 mph
(SW 7 kph)
- 10SM
18:55
Clear
84°F / 29°C 66°F / 19°C 55% 29.95 in
(1014 mb)
SW 3.5 mph
(SW 6 kph)
- 10SM
18:35
Clear
86°F / 30°C 66°F / 19°C 52% 29.95 in
(1014 mb)
S 5.8 mph
(S 9 kph)
- 10SM
18:15
Clear
88°F / 31°C 66°F / 19°C 49% 29.92 in
(1013 mb)
SW 4.6 mph
(SW 7 kph)
- 10SM
17:55
Clear
90°F / 32°C 64°F / 18°C 43% 29.95 in
(1014 mb)
SW 5.8 mph
(SW 9 kph)
- 10SM
17:35
Clear
90°F / 32°C 64°F / 18°C 43% 29.92 in
(1013 mb)
SW 9.2 mph
(SW 15 kph)
- 10SM
17:15
Clear
91°F / 33°C 64°F / 18°C 41% 29.92 in
(1013 mb)
SW 9.2 mph
(SW 15 kph)
- 10SM
16:55
Clear
91°F / 33°C 63°F / 17°C 38% 29.92 in
(1013 mb)
SW 9.2 mph
(SW 15 kph)
- 10SM
16:35
Clear
93°F / 34°C 63°F / 17°C 36% 29.92 in
(1013 mb)
SW 11.5 mph
(SW 19 kph)
- 10SM
16:15
Clear
93°F / 34°C 63°F / 17°C 36% 29.92 in
(1013 mb)
SW 11.5 mph
(SW 19 kph)
- 10SM
15:55
Clear
93°F / 34°C 63°F / 17°C 36% 29.92 in
(1013 mb)
SW 8.1 mph
(SW 13 kph)
- 10SM
15:35
Clear
93°F / 34°C 63°F / 17°C 36% 29.92 in
(1013 mb)
SW 9.2 mph
(SW 15 kph)
- 10SM
15:15
Clear
93°F / 34°C 63°F / 17°C 36% 29.92 in
(1013 mb)
SW 12.7 mph
(SW 20 kph)
- 10SM
14:55
Clear
91°F / 33°C 63°F / 17°C 38% 29.95 in
(1014 mb)
SW 11.5 mph
(SW 19 kph)
- 10SM
14:35
Clear
91°F / 33°C 63°F / 17°C 38% 29.95 in
(1014 mb)
S 11.5 mph
(S 19 kph)
- 10SM
14:15
Clear
90°F / 32°C 63°F / 17°C 41% 29.95 in
(1014 mb)
SW 12.7 mph
(SW 20 kph)
- 10SM
13:55
Clear
90°F / 32°C 63°F / 17°C 41% 29.95 in
(1014 mb)
SW 9.2 mph
(SW 15 kph)
- 10SM
13:35
Clear
90°F / 32°C 63°F / 17°C 41% 29.95 in
(1014 mb)
SW 15 mph
(SW 24 kph)
- 10SM
13:15
Clear
90°F / 32°C 63°F / 17°C 41% 29.98 in
(1015 mb)
SW 10.4 mph
(SW 17 kph)
- 10SM
12:55
Clear
90°F / 32°C 63°F / 17°C 41% 29.98 in
(1015 mb)
SW 10.4 mph
(SW 17 kph)
- 10SM
12:35
Clear
88°F / 31°C 63°F / 17°C 43% 29.98 in
(1015 mb)
SW 9.2 mph
(SW 15 kph)
- 10SM
12:15
Clear
88°F / 31°C 63°F / 17°C 43% 29.98 in
(1015 mb)
SSE 11.5 mph
(SSE 19 kph)
- 10SM
11:55
Clear
88°F / 31°C 63°F / 17°C 43% 30.01 in
(1016 mb)
SW 6.9 mph
(SW 11 kph)
- 10SM
11:35
Clear
86°F / 30°C 63°F / 17°C 46% 30.01 in
(1016 mb)
SW 8.1 mph
(SW 13 kph)
- 10SM
11:15
Clear
86°F / 30°C 63°F / 17°C 46% 30.01 in
(1016 mb)
SSE 6.9 mph
(SSE 11 kph)
- 10SM
10:55
Clear
84°F / 29°C 63°F / 17°C 48% 30.01 in
(1016 mb)
SSW 11.5 mph
(SSW 19 kph)
- 10SM
10:35
Clear
84°F / 29°C 63°F / 17°C 48% 30.04 in
(1017 mb)
SW 8.1 mph
(SW 13 kph)
- 10SM
10:15
Clear
84°F / 29°C 63°F / 17°C 48% 30.04 in
(1017 mb)
SW 9.2 mph
(SW 15 kph)
- 10SM
09:55
Clear
82°F / 28°C 63°F / 17°C 51% 30.04 in
(1017 mb)
SSW 11.5 mph
(SSW 19 kph)
- 10SM
09:35
Clear
82°F / 28°C 63°F / 17°C 51% 30.04 in
(1017 mb)
SSW 12.7 mph
(SSW 20 kph)
- 10SM
09:15
Partly Cloudy
81°F / 27°C 63°F / 17°C 54% 30.04 in
(1017 mb)
SSW 11.5 mph
(SSW 19 kph)
- 10SM
08:55
Clear
81°F / 27°C 63°F / 17°C 54% 30.04 in
(1017 mb)
SSW 10.4 mph
(SSW 17 kph)
- 10SM
08:35
Clear
79°F / 26°C 63°F / 17°C 58% 30.04 in
(1017 mb)
SW 8.1 mph
(SW 13 kph)
- 10SM
08:15
Clear
77°F / 25°C 63°F / 17°C 61% 30.04 in
(1017 mb)
SSE 9.2 mph
(SSE 15 kph)
- 10SM
07:55
Clear
77°F / 25°C 63°F / 17°C 61% 30.04 in
(1017 mb)
SW 9.2 mph
(SW 15 kph)
- 10SM
07:35
Clear
75°F / 24°C 63°F / 17°C 65% 30.04 in
(1017 mb)
SW 5.8 mph
(SW 9 kph)
- 10SM
07:15
Clear
72°F / 22°C 63°F / 17°C 73% 30.04 in
(1017 mb)
SW 3.5 mph
(SW 6 kph)
- 10SM
06:55
Clear
70°F / 21°C 63°F / 17°C 78% 30.04 in
(1017 mb)
SW 4.6 mph
(SW 7 kph)
- 10SM
06:35
Clear
70°F / 21°C 63°F / 17°C 78% 30.04 in
(1017 mb)
SSW 3.5 mph
(SSW 6 kph)
- 10SM
06:15
Clear
68°F / 20°C 63°F / 17°C 83% 30.04 in
(1017 mb)
SW 3.5 mph
(SW 6 kph)
- 10SM
05:55
Clear
66°F / 19°C 61°F / 16°C 83% 30.01 in
(1016 mb)
Calm - 10SM
05:35
Clear
64°F / 18°C 61°F / 16°C 88% 30.01 in
(1016 mb)
Calm - 10SM
05:15
Clear
63°F / 17°C 61°F / 16°C 94% 30.01 in
(1016 mb)
Calm - 10SM
04:55
Clear
63°F / 17°C 63°F / 17°C 100% 30.01 in
(1016 mb)
Calm - 7SM
04:35
Clear
63°F / 17°C 63°F / 17°C 100% 30.01 in
(1016 mb)
Calm - 10SM
04:15
Clear
63°F / 17°C 63°F / 17°C 100% 30.01 in
(1016 mb)
Calm - 10SM
03:55
Clear
64°F / 18°C 63°F / 17°C 94% 30.01 in
(1016 mb)
Calm - 10SM
03:35
Clear
64°F / 18°C 61°F / 16°C 88% 30.01 in
(1016 mb)
Calm - 10SM
03:15
Clear
63°F / 17°C 63°F / 17°C 100% 30.01 in
(1016 mb)
Calm - 10SM
02:55
Clear
63°F / 17°C 63°F / 17°C 100% 30.01 in
(1016 mb)
Calm - 7SM
02:35
Clear
63°F / 17°C 63°F / 17°C 100% 30.01 in
(1016 mb)
Calm - 10SM
02:15
Clear
64°F / 18°C 63°F / 17°C 94% 30.01 in
(1016 mb)
Calm - 10SM
01:55
Clear
64°F / 18°C 61°F / 16°C 88% 30.01 in
(1016 mb)
Calm - 10SM
01:35
Clear
64°F / 18°C 59°F / 15°C 83% 30.04 in
(1017 mb)
Calm - 10SM
01:15
Clear
66°F / 19°C 59°F / 15°C 78% 30.04 in
(1017 mb)
Calm - 10SM
00:55
Partly Cloudy
66°F / 19°C 61°F / 16°C 83% 30.04 in
(1017 mb)
Calm - 10SM
00:35
Partly Cloudy
66°F / 19°C 61°F / 16°C 83% 30.04 in
(1017 mb)
Calm - 10SM
00:15
Overcast
68°F / 20°C 61°F / 16°C 78% 30.04 in
(1017 mb)
Calm - 10SM
Time Weather Temperature Dewpoint Humidity Pressure Winds Precip Visibility


Weather for websites

WeatherForYou.com, LLC is not responsible for any damages or problems caused by this service. Current weather conditions are obtained from the closest station including government and personal stations which may have varying degrees of accuracy. Weather forecasts are derived from the NOAA NDFD. Like all things, this site belongs to Jesus Christ... He just trusts me to maintain it. If you have any questions or comments email webmaster@weatherforyou.com

Copyright © 2014, WeatherForYou.com LLC. All rights reserved.